Regional Weather Roundup
Issued by NWS Spokane, WA

Home | Current Version | Previous Version | Text Only | Print | Product List | Glossary On
Versions: 1 2 3 4 5 6 7 8 9 10 11 12 13 14 15 16 17 18 19 20 21 22 23 24 25 26 27 28 29 30 31 32 33 34 35 36 37 38 39 40 41 42 43 44 45 46 47 48 49 50
000
NZUS01 KOTX 202210
RWROTX
EASTERN WASHINGTON/NORTHERN IDAHO ROUNDUP
NATIONAL WEATHER SERVICE, SPOKANE WA
300 PM PDT MON OCT 20 2014

Note: "fair" indicated few or no clouds below 12,000 feet with no
significant weather and/or obstructions to visibility.

...NORTHEAST WASHINGTON AND NORTHERN IDAHO PANHANDLE...

CITY           SKY/WX    TMP DP  RH WIND       PRES   REMARKS
SPOKANE INTL   PTSUNNY   68  44  42 SW9       29.75F
SPOKANE DOWNTO MOSUNNY   70  43  37 W7        29.75R
COEUR D ALENE  PTSUNNY   70  43  37 W12       29.74S
DEER PARK      MOSUNNY   69  45  41 SW12G21   29.75S
SANDPOINT      MOSUNNY   64  48  55 CALM      29.75F

...SOUTHEAST WASHINGTON AND SOUTHERN IDAHO PANHANDLE...

CITY           SKY/WX    TMP DP  RH WIND       PRES   REMARKS
WALLA WALLA    PTSUNNY   69  49  48 VRB3      29.74S
PULLMAN/MOSCOW SUNNY     70  38  31 W12       29.77S
LEWISTON       SUNNY     73  38  27 W5        29.70F
LOWELL           N/A     61  51  70 CALM      29.70F

...COLUMBIA BASIN...

CITY           SKY/WX    TMP DP  RH WIND       PRES   REMARKS
EPHRATA        CLOUDY    63  50  62 SW13      29.73R
MOSES LAKE     PTSUNNY   66  51  58 CALM      29.73S
TRI CITIES     PTSUNNY   73  47  39 W12       29.72R
HERMISTON      PTSUNNY   71  48  43 W20       29.75R
PENDLETON      PTSUNNY   67  48  50 W12       29.75S

...EAST SLOPES CASCADES...

CITY           SKY/WX    TMP DP  RH WIND       PRES   REMARKS
THE DALLES     CLOUDY    60  54  80 W3        29.77F
YAKIMA         CLOUDY    59  54  83 NE6       29.79R
ELLENSBURG     LGT RAIN  57  53  86 E6        29.78R FOG
WENATCHEE      LGT RAIN  58  52  80 NW5       29.76R
OMAK           CLOUDY    56  50  80 CALM      29.73R

...SOUTHERN BRITISH COLUMBIA...

CITY           SKY/WX    TMP DP  RH WIND       PRES   REMARKS
PENTICTON      LGT RAIN  57  50  77 SW6       29.72R
CASTLEGAR      PTSUNNY   63  50  63 S5        29.70F

...WESTERN MONTANA...

CITY           SKY/WX    TMP DP  RH WIND       PRES   REMARKS
MISSOULA       SUNNY     69  37  30 CALM      29.76F

...NEIGHBORING CITIES...

CITY           SKY/WX    TMP DP  RH WIND       PRES   REMARKS
SEATTLE        CLOUDY    61  55  81 S8        29.77S
CALGARY        MOSUNNY   72  28  20 SW13G20   29.59S



USA.gov is the U.S. government's official web portal to all federal, state and local government web resources and services.